Location: Unspecified
(0.0000°N, 0.0000°E)
Time: 12:18:46

MOZ.5/SAFIR/RUBIN 5/SL-8 - Pass Details

Date: 27 January 2013
Orbit: 679 x 706 km, 97.9° (Epoch: 23 October)

Event Time Altitude Azimuth Distance (km) Brightness Sun altitude
Rises 19:25:31 0° 355° (N) 3,021 6.9 -17.2°
Reaches altitude 10° 19:27:54 10° 346° (NNW) 2,108 6.2 -17.8°
Maximum altitude 19:32:02 33° 282° (WNW) 1,129 5.4 -18.8°
Drops below altitude 10° 19:36:12 10° 218° (SW) 2,118 7.1 -19.7°
Sets 19:38:37 0° 208° (SSW) 3,037 7.8 -20.3°
